Regional & State Weather Roundups


188 
ASUS41 KLWX 271910
RWRLWX
REGIONAL WEATHER ROUNDUP
NATIONAL WEATHER SERVICE BALTIMORE MD/WASHINGTON DC
300 PM EDT FRI MAY 27 2016
Note: "FAIR" indicates few or no clouds below 12,000 feet
with no significant weather and/or obstructions to visibility.
 TC=TEMPERATURE CELSIUS
 * =Non NWS site. Station does not report precipitation (e.g. rain,
    snow, etc.), thunder, or fog.
DCZ001-MDZ009-015-VAZ040>042-051-053>054-272000-
WASHINGTON METRO
  
CITY           SKY/WX    TMP DP  RH WIND       PRES   REMARKS
WASHINGTON NAT FAIR      87  70  56 S9        30.05  HX  92           
DULLES         FAIR      87  66  49 VRB6      30.05F                  
ANDREWS AFB    SUNNY     88  65  46 S12       30.05F HX  90           
FT BELVOIR     FAIR      87  67  51 S8        30.05F HX  90           
QUANTICO       FAIR      86  71  60 S5        30.06F HX  91           
COLLEGE PARK*  FAIR      88  64  45 W5        30.04F                  
LEESBURG*      FAIR      91  70  49 S15G21    30.06S HX  97           
MANASSAS*      MOSUNNY   88  66  48 S10       30.05F HX  90           
$$
MDZ006>007-011-014-272000-
BALTIMORE METRO
  
CITY           SKY/WX    TMP DP  RH WIND       PRES   REMARKS
BWI AIRPORT    PTSUNNY   89  65  44 S9        30.04F HX  91           
MD SCIENCE CTR   N/A     86  68  54 MISG      30.04F                  
MARTIN STATE   MOSUNNY   84  73  70 SE14      30.06F HX  91           
ANNAPOLIS      SUNNY     83  71  67 SE14      30.05F                  
FORT MEADE*    MOSUNNY   86  64  48 S7        30.07S                  
$$
MDZ012-015-019>023-272000-
MARYLAND EASTERN SHORE
  
CITY           SKY/WX    TMP DP  RH WIND       PRES   REMARKS
OCEAN CITY     SUNNY     72  63  73 S13       30.11F                  
SALISBURY      SUNNY     86  66  51 S10       30.08F                  
BAY BRIDGE AP* SUNNY     86  68  54 S10       30.06F                  
CAMBRIDGE*     SUNNY     81  66  61 S10G16    30.08S                  
EASTON*        SUNNY     86  73  66 SW9       30.11S HX  93           
$$
MDZ017>025-272000-
SOUTHERN MARYLAND
  
CITY           SKY/WX    TMP DP  RH WIND       PRES   REMARKS
PATUXENT RIVER MOSUNNY   79  67  66 SE13      30.07S                  
ST INIGOES     SUNNY     85  70  60 S9        30.06F                  
LEONARDTOWN*   MOSUNNY   86  66  51 S6        30.08F                  
$$
MDZ003>005-272000-
NORTH CENTRAL MARYLAND
  
CITY           SKY/WX    TMP DP  RH WIND       PRES   REMARKS
FREDERICK*     SUNNY     90  72  55 S9G16     30.07F HX  96           
HAGERSTOWN APT CLOUDY    88  62  41 SW5       30.06S                  
WESTMINSTER*   SUNNY     90  86  89 SW9       30.07S HX 119           
$$
MDZ501>502-272000-
WESTERN MARYLAND
  
CITY           SKY/WX    TMP DP  RH WIND       PRES   REMARKS
OAKLAND*       CLOUDY    75  59  57 W6        30.18S                  
CUMBERLAND*    CLOUDY    88  61  40 N3        30.08S                  
$$
VAZ025>031-272000-
SHENANDOAH VALLEY
  
CITY           SKY/WX    TMP DP  RH WIND       PRES   REMARKS
WINCHESTER*    PTSUNNY   88  64  45 S8        30.06S                  
FRONT ROYAL*   FAIR      88  68  51 SE6       30.05S HX  91           
LURAY*         FAIR      88  68  51 S7        30.06F HX  91           
NEW MARKET*    FAIR      87  67  51 S6        30.03F HX  90           
STAUNTON*      FAIR      85  62  45 S10       30.11S                  
WAYNESBORO*    CLOUDY    84  65  53 S5        30.12S                  
$$
WVZ021-048>050-054>055-272000-
EASTERN WEST VIRGINIA PANHANDLE
  
CITY           SKY/WX    TMP DP  RH WIND       PRES   REMARKS
MARTINSBURG    FAIR      87  65  47 S9        30.05S                  
PETERSBURG*    PTSUNNY   83  68  60 NW6       30.07R                  
$$
VAZ036>039-050-272000-
CENTRAL FOOTHILLS
  
CITY           SKY/WX    TMP DP  RH WIND       PRES   REMARKS
CHARLOTTESVILL FAIR      86  68  54 S9        30.07F                  
CULPEPER*      FAIR      89  69  51 S7        30.06F HX  93           
ORANGE*        FAIR      88  66  48 SW10      30.09S HX  90           
GORDONSVILLE*  FAIR      87  69  54 SW7       30.06F HX  91           
WARRENTON*     FAIR      89  61  38 S8        30.05F                  
$$
VAZ055>057-272000-
NORTH AND CENTRAL PIEDMONT
  
CITY           SKY/WX    TMP DP  RH WIND       PRES   REMARKS
FREDERICKSBRG* FAIR      89  69  51 S10       30.05S HX  93           
STAFFORD*      PTSUNNY   85  65  49 S5        30.10S                  
$$
NCZ024-NYZ072-PAZ021-071-VAZ022-071-272000-
OTHER REGIONAL OBSERVATIONS
  
CITY           SKY/WX    TMP DP  RH WIND       PRES   REMARKS
NEW YORK CITY  SUNNY     82  63  52 VRB6G16   30.06F                  
PHILADELPHIA   MOSUNNY   89  64  43 SW16      30.03F HX  90           
PITTSBURGH     PTSUNNY   85  59  41 SW9G22    30.06F                  
ROANOKE        PTSUNNY   83  63  50 S9        30.12S                  
RICHMOND       FAIR      86  66  51 S13       30.08S                  
RALEIGH        MOSUNNY   87  65  47 S7        30.11F                  
$$
ANZ530>537-272000-
MARINE OBSERVATIONS
  
STATION/POSITION TIME  TEMP    WIND        PRES
                       AIR SEA DIR/SP/G
                 (UTC) (F)     (DEG/KT/KT) (MB)
THOMAS PT LIGHT  1900   72 67  190/ 12/ 12 1019.3F
BALT KEY BRIDGE  1800   79     120/ 16/ 18 1017.2F
COVE POINT       1800   69     180/ 10/ 11 1019.4F
LEWISETTA        1800   79 69  100/  5/  7 1018.2F
SOLOMONS ISLAND  1800   74 68  120/ 11/ 14   N/A
PINEY POINT      1800          150/ 12/ 12   N/A
$$